Waarnemingen

Advertentie
Mijn weer
Hoogeveen aws, Nederland (6279): temperatuur & dauwpunt: 16.01.2017 13:00:00 - 22.01.2017 13:00:00 (CET)Hoogeveen aws, Nederland (6279): temperatuur 5cm: 16.01.2017 13:00:00 - 22.01.2017 13:00:00 (CET)Hoogeveen aws, Nederland (6279): windsnelheid & windstoten: 16.01.2017 13:00:00 - 22.01.2017 13:00:00 (CET)Hoogeveen aws, Nederland (6279): windrichting: 16.01.2017 13:00:00 - 22.01.2017 13:00:00 (CET)Hoogeveen aws, Nederland (6279): luchtdruk: 16.01.2017 13:00:00 - 22.01.2017 13:00:00 (CET)Hoogeveen aws, Nederland (6279): zicht: 16.01.2017 13:00:00 - 22.01.2017 13:00:00 (CET)Hoogeveen aws, Nederland (6279): neerslag: 16.01.2017 13:00:00 - 22.01.2017 13:00:00 (CET)
Datum & Tijd tt [°C] td [°C] tt 5cm [°C] ff [km/u] ff [kn] fx [km/u] fx [kn] dd ppp [hPa] vv [km] rr [mm]
22.01.2017 13:00:00 0,5 -3,1 1,9 6 3 - - OZO 1027,1 13 -
22.01.2017 12:00:00 0,0 -3,9 1,2 4 2 11 6 ZO 1027,7 13 0,0
22.01.2017 11:00:00 -1,1 -4,6 -0,5 7 4 11 6 Z 1028,1 13 0,0
22.01.2017 10:00:00 -2,8 -4,7 -3,3 7 4 7 4 OZO 1028,1 10 0,0
22.01.2017 09:00:00 -4,5 -5,6 -6,5 7 4 11 6 OZO 1027,9 7 0,0
22.01.2017 08:00:00 -4,8 -5,6 -7,0 4 2 7 4 OZO 1027,6 6 0,0
22.01.2017 07:00:00 -4,3 -5,1 -6,4 4 2 11 6 ZO 1027,9 7 0,0
22.01.2017 06:00:00 -3,5 -4,6 -5,8 7 4 11 6 ZO 1027,6 8 0,0
22.01.2017 05:00:00 -3,7 -4,5 -6,2 4 2 11 6 OZO 1028,1 6 0,0
22.01.2017 04:00:00 -3,6 -4,4 -5,3 7 4 11 6 OZO 1028,1 6 0,0
22.01.2017 03:00:00 -2,8 -3,5 -4,8 7 4 11 6 OZO 1028,3 6 0,0
22.01.2017 02:00:00 -2,2 -3,3 -4,7 7 4 11 6 OZO 1028,4 7 0,0
22.01.2017 01:00:00 -1,9 -3,0 -4,1 7 4 11 6 O 1028,7 8 0,0
22.01.2017 00:00:00 -1,2 -2,1 -4,3 4 2 11 6 O 1029,0 8 0,0
21.01.2017 23:00:00 -1,0 -2,3 -4,0 7 4 11 6 O 1028,9 10 0,0
21.01.2017 22:00:00 -0,8 -2,1 -2,4 11 6 14 8 O 1028,9 10 0,0
21.01.2017 21:00:00 0,3 -1,2 -1,0 11 6 18 10 O 1028,9 11 0,0
21.01.2017 20:00:00 0,3 -0,8 -1,2 7 4 14 8 O 1029,2 12 0,0
21.01.2017 19:00:00 0,4 -0,5 -1,5 7 4 18 10 ONO 1029,3 11 0,0
21.01.2017 18:00:00 1,5 -0,2 0,0 11 6 14 8 O 1029,5 18 0,0
21.01.2017 17:00:00 2,4 0,2 1,1 11 6 18 10 O 1029,3 22 0,0
21.01.2017 16:00:00 3,2 0,6 2,8 11 6 18 10 O 1029,7 20 0,0
21.01.2017 15:00:00 3,7 0,6 4,0 14 8 25 14 O 1029,9 21 0,0
21.01.2017 14:00:00 3,7 0,4 4,2 18 10 25 14 O 1030,5 25 0,0
21.01.2017 13:00:00 3,4 0,4 4,2 14 8 22 12 O 1031,3 20 0,0
21.01.2017 12:00:00 3,1 0,7 3,7 14 8 22 12 O 1031,8 15 0,0
21.01.2017 11:00:00 2,6 0,4 2,1 11 6 14 8 O 1032,3 14 0,0
21.01.2017 10:00:00 1,9 0,8 1,6 11 6 18 10 ONO 1032,5 9 0,0
21.01.2017 09:00:00 1,7 0,6 1,1 11 6 14 8 ONO 1032,6 7 0,0
21.01.2017 08:00:00 1,6 0,6 1,0 11 6 14 8 O 1032,4 6 0,0
21.01.2017 07:00:00 1,6 0,8 1,0 7 4 11 6 ONO 1032,5 6 0,0
21.01.2017 06:00:00 1,8 1,0 0,8 7 4 11 6 ONO 1032,7 7 0,0
21.01.2017 05:00:00 1,2 0,9 0,7 7 4 11 6 ONO 1033,1 4,2 0,0
21.01.2017 04:00:00 1,1 1,1 0,7 7 4 11 6 NO 1033,4 1,0 0,0
21.01.2017 03:00:00 1,0 1,0 0,6 7 4 11 6 ONO 1033,7 0,7 0,0
21.01.2017 02:00:00 0,7 0,5 0,2 4 2 7 4 NO 1033,6 1,7 0,0
21.01.2017 01:00:00 1,0 0,7 0,5 0 0 7 4 N 1034,3 1,9 0,0
21.01.2017 00:00:00 0,7 0,3 0,4 4 2 7 4 NO 1034,6 3,9 0,0
20.01.2017 23:00:00 0,9 0,1 0,5 0 0 4 2 N 1035,0 8 0,0
20.01.2017 22:00:00 1,1 0,0 0,6 4 2 7 4 O 1034,9 9 0,0
20.01.2017 21:00:00 0,9 -0,1 0,4 4 2 7 4 NNO 1035,2 10 0,0
20.01.2017 20:00:00 0,5 -0,4 0,2 4 2 7 4 NNO 1035,1 11 0,0
20.01.2017 19:00:00 0,1 -1,0 -0,3 4 2 7 4 O 1035,3 12 0,0
20.01.2017 18:00:00 0,3 -1,9 -0,8 0 0 7 4 N 1035,3 16 0,0
20.01.2017 17:00:00 0,7 -1,8 -0,3 4 2 7 4 NO 1035,5 18 0,0
20.01.2017 16:00:00 1,8 -3,3 1,7 4 2 4 2 N 1035,7 35 0,0
20.01.2017 15:00:00 3,1 -5,6 3,7 4 2 7 4 O 1035,5 35 0,0
20.01.2017 14:00:00 2,7 -5,8 3,1 4 2 7 4 O 1036,0 36 0,0
20.01.2017 13:00:00 2,1 -5,8 2,9 4 2 7 4 O 1036,5 26 0,0
20.01.2017 12:00:00 0,5 -2,4 1,0 4 2 7 4 ONO 1036,8 11 0,0
20.01.2017 11:00:00 -1,2 -3,6 -0,6 4 2 7 4 ZO 1037,1 7 0,0
20.01.2017 10:00:00 -4,7 -5,6 -5,0 4 2 4 2 O 1037,0 7 0,0
20.01.2017 09:00:00 -6,7 -7,8 -7,6 0 0 4 2 N 1036,9 7 0,0
20.01.2017 08:00:00 -6,8 -7,7 -7,7 0 0 4 2 N 1036,7 7 0,0
20.01.2017 07:00:00 -6,6 -7,1 -7,6 0 0 4 2 N 1036,7 6 0,0
20.01.2017 06:00:00 -6,3 -7,3 -7,3 0 0 4 2 N 1036,8 6 0,0
20.01.2017 05:00:00 -6,4 -7,3 -7,4 0 0 4 2 N 1037,1 6 0,0
20.01.2017 04:00:00 -6,2 -7,0 -7,2 4 2 7 4 NNO 1037,0 6 0,0
20.01.2017 03:00:00 -6,1 -6,9 -7,1 4 2 4 2 NO 1037,1 7 0,0
20.01.2017 02:00:00 -5,9 -6,5 -6,6 4 2 7 4 N 1037,2 6 0,0
20.01.2017 01:00:00 -5,8 -6,5 -6,4 4 2 7 4 N 1037,7 6 0,0
20.01.2017 00:00:00 -5,0 -5,6 -6,3 4 2 4 2 NNO 1037,7 6 0,0
19.01.2017 23:00:00 -4,8 -5,0 -6,4 0 0 4 2 N 1038,0 0,2 0,0
19.01.2017 22:00:00 -4,5 -4,9 -5,8 0 0 4 2 N 1038,3 3,4 0,0
19.01.2017 21:00:00 -4,5 -4,8 -5,9 0 0 4 2 N 1038,3 0,2 0,0
19.01.2017 20:00:00 -3,6 -3,8 -5,6 4 2 4 2 O 1038,3 0,3 0,0
19.01.2017 19:00:00 -2,6 -2,8 -4,6 0 0 4 2 N 1038,1 0,2 0,0
19.01.2017 18:00:00 -1,9 -2,2 -3,8 4 2 4 2 O 1038,0 1,3 0,0
19.01.2017 17:00:00 -0,6 -1,8 -1,9 4 2 7 4 ONO 1037,8 5 0,0
19.01.2017 16:00:00 1,6 -1,7 1,4 4 2 4 2 NNO 1037,8 12 0,0
19.01.2017 15:00:00 2,0 -1,3 2,5 4 2 4 2 NNO 1038,1 12 0,0
19.01.2017 14:00:00 2,2 -0,7 3,2 0 0 4 2 N 1038,4 10 0,0
19.01.2017 13:00:00 0,0 -1,0 1,5 4 2 7 4 N 1038,7 10 0,0
19.01.2017 12:00:00 -0,1 -1,2 1,1 0 0 4 2 N 1038,9 7 0,0
19.01.2017 11:00:00 -1,3 -1,3 -1,3 0 0 4 2 N 1039,3 5 0,0
19.01.2017 10:00:00 -2,3 -2,6 -2,1 4 2 4 2 ZO 1039,0 4,3 0,0
19.01.2017 09:00:00 -2,7 -3,0 -3,1 0 0 4 2 N 1039,0 4,0 0,0
19.01.2017 08:00:00 -4,5 -5,0 -6,5 4 2 4 2 ZZO 1038,6 3,1 0,0
19.01.2017 07:00:00 -5,0 -5,7 -6,7 4 2 4 2 ZZO 1038,5 2,4 0,0
19.01.2017 06:00:00 -5,2 -5,7 -6,7 4 2 4 2 O 1038,8 2,3 0,0
19.01.2017 05:00:00 -4,5 -5,1 -6,6 4 2 4 2 NO 1039,1 0,6 0,0
19.01.2017 04:00:00 -3,2 -3,4 -4,0 0 0 4 2 N 1039,1 2,1 0,0
19.01.2017 03:00:00 -2,4 -2,7 -2,4 0 0 4 2 N 1038,8 2,6 0,0
19.01.2017 02:00:00 -2,8 -3,3 -3,1 4 2 4 2 ZO 1039,0 2,3 0,0
19.01.2017 01:00:00 -2,6 -3,2 -2,8 4 2 4 2 OZO 1039,3 2,2 0,0
19.01.2017 00:00:00 -2,8 -3,0 -2,9 0 0 4 2 N 1039,6 2,1 0,0
18.01.2017 23:00:00 -3,5 -3,8 -4,6 0 0 4 2 N 1039,4 1,8 0,0
18.01.2017 22:00:00 -3,4 -4,1 -4,7 4 2 4 2 O 1039,6 2,0 0,0
18.01.2017 21:00:00 -2,9 -3,4 -3,2 0 0 4 2 N 1039,7 2,6 0,0
18.01.2017 20:00:00 -2,9 -3,3 -3,3 4 2 4 2 NO 1039,6 2,4 0,0
18.01.2017 19:00:00 -2,8 -3,1 -3,4 0 0 4 2 N 1039,9 2,6 0,0
18.01.2017 18:00:00 -2,6 -3,0 -2,6 4 2 4 2 O 1039,9 2,7 0,0
18.01.2017 17:00:00 -2,5 -3,0 -2,3 4 2 4 2 O 1040,2 4,1 0,0
18.01.2017 16:00:00 -2,5 -3,0 -2,1 4 2 4 2 O 1040,2 3,2 0,0
18.01.2017 15:00:00 -2,3 -2,5 -2,2 4 2 4 2 ZZO 1040,2 3,3 0,0
18.01.2017 14:00:00 -2,3 -2,3 -1,9 0 0 4 2 N 1040,2 2,6 0,0
18.01.2017 13:00:00 -2,6 -2,9 -2,3 0 0 4 2 N 1040,8 3,3 0,0
18.01.2017 12:00:00 -3,7 -4,2 -3,0 4 2 7 4 ZZO 1041,0 2,3 0,0
18.01.2017 11:00:00 -4,4 -5,1 -4,0 4 2 7 4 ZZO 1041,2 2,0 0,0
18.01.2017 10:00:00 -4,5 -5,3 -4,3 4 2 7 4 ZZO 1041,3 2,3 0,0
18.01.2017 09:00:00 -5,0 -5,7 -5,0 4 2 7 4 Z 1040,6 0,8 0,0
18.01.2017 08:00:00 -5,3 -6,1 -5,2 4 2 7 4 ZZO 1040,2 0,7 0,0
18.01.2017 07:00:00 -5,4 -5,9 -5,2 4 2 7 4 W 1040,3 0,4 0,0
18.01.2017 06:00:00 -5,3 -6,1 -5,2 4 2 7 4 ZZO 1040,0 0,2 0,0
18.01.2017 05:00:00 -5,7 -6,5 -5,4 4 2 7 4 ZO 1040,2 0,3 0,0
18.01.2017 04:00:00 -5,4 -6,1 -5,3 4 2 7 4 Z 1040,5 0,2 0,0
18.01.2017 03:00:00 -5,6 -6,2 -5,5 4 2 7 4 ZZO 1040,8 0,2 0,0
18.01.2017 02:00:00 -5,7 -6,4 -5,5 4 2 7 4 ZZO 1040,7 0,2 0,0
18.01.2017 01:00:00 -5,8 -6,7 -5,6 4 2 4 2 ZZO 1040,6 0,2 0,0
18.01.2017 00:00:00 -5,4 -6,1 -5,1 4 2 7 4 ZZO 1040,5 0,2 0,0
17.01.2017 23:00:00 -4,7 -5,1 -4,6 4 2 7 4 ZZO 1040,4 0,1 0,0
17.01.2017 22:00:00 -4,8 -5,4 -4,7 4 2 7 4 ZO 1040,5 0,2 0,0
17.01.2017 21:00:00 -4,6 -5,1 -4,5 4 2 7 4 ZO 1040,1 0,1 0,0
17.01.2017 20:00:00 -4,6 -5,3 -4,5 4 2 7 4 O 1040,1 0,1 0,0
17.01.2017 19:00:00 -4,6 -5,2 -4,4 4 2 7 4 ZO 1039,7 0,1 0,0
17.01.2017 18:00:00 -4,6 -5,0 -4,3 4 2 4 2 O 1039,4 0,2 0,0
17.01.2017 17:00:00 -4,1 -4,5 -3,9 0 0 4 2 N 1039,1 3,2 0,0
17.01.2017 16:00:00 -4,0 -4,5 -3,5 0 0 4 2 N 1039,0 1,1 0,0
17.01.2017 15:00:00 -3,8 -4,2 -3,4 0 0 4 2 N 1039,0 0,7 0,0
17.01.2017 14:00:00 -4,0 -4,6 -3,2 4 2 7 4 WNW 1039,0 2,3 0,0
17.01.2017 13:00:00 -4,1 -4,8 -3,0 4 2 4 2 W 1039,1 1,5 0,0
17.01.2017 12:00:00 -4,8 -5,3 -3,9 4 2 7 4 WZW 1039,1 0,2 0,0
17.01.2017 11:00:00 -5,3 -5,7 -4,8 4 2 7 4 ZW 1038,9 0,3 0,0
17.01.2017 10:00:00 -5,4 -6,1 -5,2 4 2 7 4 ZW 1038,6 0,7 0,0
17.01.2017 09:00:00 -5,5 -6,2 -5,4 4 2 7 4 Z 1037,9 1,3 0,0
17.01.2017 08:00:00 -5,7 -6,2 -5,5 4 2 7 4 ZW 1037,5 0,5 0,0
17.01.2017 07:00:00 -6,1 -6,8 -6,0 4 2 - - Z 1036,8 0,2 0,0
17.01.2017 06:00:00 -6,4 -6,7 -6,1 4 2 7 4 Z 1036,2 0,1 0,0
17.01.2017 05:00:00 -6,2 -6,9 -6,0 4 2 7 4 ZZO 1035,9 0,1 0,0
17.01.2017 04:00:00 -6,0 -6,8 -5,8 4 2 - - OZO 1035,8 0,1 0,0
17.01.2017 03:00:00 -5,9 -6,3 -5,7 4 2 4 2 ZO 1035,5 0,1 0,0
17.01.2017 02:00:00 -6,2 -6,6 -5,9 4 2 4 2 W 1035,3 0,1 0,0
17.01.2017 01:00:00 -6,5 -7,2 -6,4 4 2 7 4 Z 1035,1 0,1 0,0
17.01.2017 00:00:00 -6,5 -7,0 -6,2 0 0 4 2 N 1034,5 0,1 0,0
16.01.2017 23:00:00 -6,5 -6,9 -6,4 0 0 4 2 N 1034,1 0,2 0,0
16.01.2017 22:00:00 -6,8 -7,3 -6,6 4 2 7 4 WNW 1033,6 0,5 0,0
16.01.2017 21:00:00 -6,8 -7,5 -7,5 4 2 7 4 ZO 1032,8 0,2 0,0
16.01.2017 20:00:00 -6,5 -7,2 -6,3 4 2 7 4 Z 1032,3 0,1 0,0
16.01.2017 19:00:00 -6,5 -6,8 -6,3 4 2 4 2 Z 1031,7 0,1 0,0
16.01.2017 18:00:00 -6,0 -6,6 -5,7 4 2 7 4 OZO 1031,1 0,1 0,0
16.01.2017 17:00:00 -4,7 -5,1 -4,7 4 2 7 4 OZO 1030,9 0,1 0,0
16.01.2017 16:00:00 -4,7 -5,1 -4,2 4 2 7 4 OZO 1030,3 0,1 0,0
16.01.2017 15:00:00 -4,4 -4,7 -3,8 4 2 4 2 NNO 1029,8 0,2 0,0
16.01.2017 14:00:00 -4,1 -4,4 -3,4 4 2 7 4 NNW 1029,3 0,2 0,0
16.01.2017 13:00:00 -4,2 -4,4 -3,7 4 2 7 4 ZZO 1029,2 0,2 0,0

tt = temperatuur
td = dauwpunt
tt 5cm = temperatuur 5cm
ff = windsnelheid
fx = windstoten
dd = windrichting
ppp = luchtdruk
vv = zicht
rr = neerslag

Weerstations in de omgeving